EW9774 Weather Reports


Display with metric or nautical units.
time (UTC)temp
F
wind
direction
speed
MPH
gust
MPH
rain 1hr
in
rain 24hr
in
rain mn
in
humidity
%
barometer
mb
20260502223030 79 344 0.0 4.0 0.00 0.00 0.00 41 1013.8
20260502221529 80 54 1.0 4.0 0.00 0.00 0.00 41 1014.0
20260502214531 78 186 1.0 4.0 0.00 0.00 0.00 50 1014.4
20260502211530 72 70 2.0 6.0 0.00 0.00 0.00 58 1014.8
20260502210030 72 60 2.0 5.0 0.00 0.00 0.00 59 1015.0
20260502204532 71 14 1.0 5.0 0.00 0.00 0.00 64 1015.0
20260502203107 69 352 1.0 4.0 0.00 0.00 0.00 66 1015.3
20260502201531 69 57 0.0 4.0 0.00 0.00 0.00 67 1015.5
20260502200028 65 250 1.0 3.0 0.00 0.00 0.00 73 1015.6
20260502194532 62 136 1.0 4.0 0.00 0.00 0.00 76 1015.8
20260502193031 61 29 0.0 5.0 0.00 0.00 0.00 75 1016.0
20260502191532 62 39 3.0 7.0 0.00 0.00 0.00 73 1016.4
20260502190028 63 38 4.0 9.0 0.00 0.00 0.00 71 1016.6
20260502184532 64 45 4.0 6.0 0.00 0.00 0.00 70 1016.7
20260502183032 66 69 5.0 8.0 0.00 0.00 0.00 70 1016.7
20260502181531 65 35 3.0 7.0 0.00 0.00 0.00 71 1016.6
20260502163030 57 119 2.0 4.0 0.00 0.00 0.00 80 1017.2
20260502151531 54 137 3.0 6.0 0.00 0.00 0.00 85 1016.8
20260502150108 54 126 2.0 5.0 0.00 0.00 0.00 87 1016.6
20260502123031 53 191 1.0 5.0 0.00 0.00 0.00 86 1015.5
20260502121530 53 337 0.0 0.0 0.00 0.00 0.00 84 1015.5
20260502114531 54 125 1.0 3.0 0.00 0.00 0.00 83 1015.8
20260502113035 54 197 2.0 5.0 0.00 0.00 0.00 82 1015.6
20260502111646 55 155 1.0 3.0 0.00 0.00 0.00 81 1015.5
20260502110038 56 248 1.0 4.0 0.00 0.00 0.00 80 1015.8
20260502104530 56 182 1.0 4.0 0.00 0.00 0.00 80 1016.0
20260502103030 55 178 3.0 7.0 0.00 0.00 0.00 81 1016.3
20260502101531 55 157 3.0 7.0 0.00 0.00 0.00 84 1016.3
20260502100107 55 175 1.0 3.0 0.00 0.00 0.00 83 1016.1
20260502071532 56 188 2.0 4.0 0.00 0.00 0.00 79 1016.3
20260502070032 56 180 0.0 0.0 0.00 0.00 0.00 77 1016.2
20260502064531 57 180 0.0 2.0 0.00 0.00 0.00 76 1016.4
20260502063031 58 197 2.0 5.0 0.00 0.00 0.00 74 1016.4
20260502061531 59 180 1.0 2.0 0.00 0.00 0.00 72 1016.3
20260502060030 60 168 1.0 4.0 0.00 0.00 0.00 71 1016.2
20260502054530 61 39 2.0 4.0 0.00 0.00 0.00 69 1015.9
20260502053145 61 195 1.0 4.0 0.00 0.00 0.00 69 1016.0
20260502051644 61 202 3.0 5.0 0.00 0.00 0.00 68 1016.0
20260502050144 62 189 2.0 4.0 0.00 0.00 0.00 68 1015.8
20260502044531 62 183 2.0 6.0 0.00 0.00 0.00 68 1015.7
20260502043031 62 137 1.0 4.0 0.00 0.00 0.00 68 1015.5
20260502041644 62 139 2.0 6.0 0.00 0.00 0.00 66 1015.1
20260502040033 64 180 4.0 6.0 0.00 0.00 0.00 63 1015.1
20260502033031 67 116 3.0 7.0 0.00 0.00 0.00 56 1014.9
20260502031533 68 119 3.0 6.0 0.00 0.00 0.00 53 1014.7
20260502030108 69 150 4.0 8.0 0.00 0.00 0.00 52 1014.4
20260502024534 70 195 3.0 9.0 0.00 0.00 0.00 51 1014.0
20260502023031 71 181 5.0 11.0 0.00 0.00 0.00 48 1013.7
20260502021531 73 203 3.0 8.0 0.00 0.00 0.00 46 1013.4
20260502014536 78 312 0.0 4.0 0.00 0.00 0.00 39 1013.3
20260502013030 78 180 1.0 4.0 0.00 0.00 0.00 38 1013.3
20260502011529 79 180 2.0 4.0 0.00 0.00 0.00 36 1013.3
20260502010030 79 182 2.0 6.0 0.00 0.00 0.00 36 1013.3
20260502004654 79 129 1.0 5.0 0.00 0.00 0.00 34 1013.4
20260502003107 79 353 0.0 4.0 0.00 0.00 0.00 33 1013.5
20260501233106 79 238 2.0 10.0 0.00 0.00 0.00 34 1014.1
20260501231607 79 258 1.0 9.0 0.00 0.00 0.00 34 1014.3
20260501230031 80 189 3.0 11.0 0.00 0.00 0.00 34 1014.5
20260501224532 80 345 1.0 7.0 0.00 0.00 0.00 33 1014.8